Fort Polk, LA

3:56 AM CDT on October 22, 2019 (GMT -0500)
Fort Polk

Weather History for KAQV - August, 2019

Change the Weather History Date:

Monday, August 12, 2019

  Actual Average (KPOE) Record (KPOE)
Temperature  
Mean Temperature 88 °F -  
Max Temperature 98 °F 89 °F 100 °F (2007)
Min Temperature 78 °F 71 °F 68 °F (2003)
Cooling Degree Days 22    
Growing Degree Days 38 (Base 50)    
Moisture  
Dew Point 75 °F    
Average Humidity 74    
Maximum Humidity 93    
Minimum Humidity 41    
Precipitation  
Precipitation 0.00 in - - ()
Sea Level Pressure  
Sea Level Pressure 29.93 in    
Wind  
Wind Speed 2 mph (SSW)    
Max Wind Speed 8 mph    
Max Gust Speed -    
Visibility 9 miles    
Events      
Averages and records for this station are not official NWS values.
T = Trace of Precipitation, MM = Missing Value Source: NWS Daily Summary

Daily Weather History Graph

Daily Weather History Graph

Search for Another Location

Airport or City:

Astronomy

Aug. 12, 2019 Rise Set
Actual Time 6:36 AM CDT 7:59 PM CDT
Civil Twilight 6:10 AM CDT 8:25 PM CDT
Nautical Twilight 5:40 AM CDT 8:55 PM CDT
Astronomical Twilight 5:08 AM CDT 9:27 PM CDT
Moon 6:21 PM CDT (8/12) 3:55 AM CDT (8/12)
Length of Visible Light 14h 14m
Length of Day
13h 22m
Waxing Gibbous, 93% of the Moon is Illuminated
Aug 12
Waxing Gibbous
Aug 15
Full
Aug 23
Last Quarter
Aug 30
New
Sep 5
First Quarter

Hourly Weather History & Observations

Time (CDT) Temp. Heat Index Dew Point Humidity Pressure Visibility Wind Dir Wind Speed Gust Speed Precip Events Conditions
12:56 AM 80.1 °F 84.5 °F 73.9 °F 81% 29.92 in 10.0 mi Calm Calm - N/A   Clear
1:56 AM 79.0 °F - 75.0 °F 88% 29.91 in 10.0 mi Variable 4.6 mph - N/A   Clear
2:56 AM 79.0 °F - 75.9 °F 90% 29.91 in 10.0 mi Calm Calm - N/A   Clear
3:56 AM 78.1 °F - 75.9 °F 93% 29.92 in 8.0 mi Calm Calm - N/A   Clear
4:56 AM 78.1 °F - 75.9 °F 93% 29.93 in 7.0 mi Calm Calm - N/A   Partly Cloudy
5:33 AM 78.1 °F - 75.9 °F 93% 29.94 in 6.0 mi Calm Calm - N/A   Mostly Cloudy
5:56 AM 78.1 °F - 75.9 °F 93% 29.94 in 6.0 mi Variable 3.5 mph - N/A   Mostly Cloudy
6:56 AM 78.1 °F - 75.9 °F 93% 29.95 in 4.0 mi Calm Calm - N/A   Mostly Cloudy
7:53 AM 80.6 °F 87.1 °F 77.0 °F 89% 29.97 in 10.0 mi Calm Calm - N/A   Scattered Clouds
7:56 AM 80.1 °F 85.8 °F 77.0 °F 90% 29.96 in 10.0 mi Variable 3.5 mph - N/A   Scattered Clouds
8:24 AM 82.0 °F 90.2 °F 77.0 °F 85% 29.98 in 10.0 mi Variable 5.8 mph - N/A   Mostly Cloudy
8:56 AM 82.9 °F 91.8 °F 77.0 °F 82% 29.97 in 10.0 mi Variable 3.5 mph - N/A   Mostly Cloudy
9:12 AM 84.0 °F 93.7 °F 77.0 °F 79% 29.99 in 10.0 mi Variable 3.5 mph - N/A   Mostly Cloudy
9:56 AM 87.1 °F 97.3 °F 75.9 °F 69% 29.98 in 10.0 mi Variable 5.8 mph - N/A   Mostly Cloudy
10:49 AM 90.0 °F 101.3 °F 75.9 °F 63% 29.99 in 10.0 mi Variable 4.6 mph - N/A   Scattered Clouds
10:56 AM 90.0 °F 101.3 °F 75.9 °F 63% 29.97 in 10.0 mi Variable 5.8 mph - N/A   Mostly Cloudy
11:13 AM 91.0 °F 100.4 °F 73.9 °F 57% 29.98 in 10.0 mi SSW 8.1 mph - N/A   Scattered Clouds
11:56 AM 90.0 °F 99.0 °F 73.9 °F 59% 29.97 in 10.0 mi Variable 4.6 mph - N/A   Partly Cloudy
12:56 PM 91.9 °F 100.7 °F 73.0 °F 54% 29.95 in 10.0 mi Calm Calm - N/A   Mostly Cloudy
1:56 PM 95.0 °F 103.2 °F 72.0 °F 47% 29.94 in 10.0 mi Calm Calm - N/A   Partly Cloudy
2:56 PM 95.0 °F 103.2 °F 72.0 °F 47% 29.92 in 10.0 mi Variable 4.6 mph - N/A   Scattered Clouds
3:56 PM 97.0 °F 103.5 °F 70.0 °F 41% 29.88 in 10.0 mi Calm Calm - N/A   Scattered Clouds
4:56 PM 95.0 °F 103.2 °F 72.0 °F 47% 29.87 in 10.0 mi Calm Calm - N/A   Mostly Cloudy
6:56 PM 93.0 °F 99.0 °F 70.0 °F 47% 29.86 in 10.0 mi Calm Calm - N/A   Partly Cloudy
7:56 PM 86.0 °F 93.0 °F 73.0 °F 65% 29.87 in 10.0 mi Calm Calm - N/A   Clear
8:56 PM 82.0 °F 87.4 °F 73.0 °F 74% 29.87 in 10.0 mi Calm Calm - N/A   Clear
9:56 PM 80.1 °F 84.5 °F 73.9 °F 81% 29.88 in 10.0 mi Calm Calm - N/A   Clear
10:56 PM 79.0 °F - 73.9 °F 84% 29.88 in 10.0 mi Calm Calm - N/A   Clear
11:56 PM 80.1 °F 85.1 °F 75.0 °F 85% 29.89 in 10.0 mi Variable 3.5 mph - N/A   Clear